Location: Camp Roosevelt
(41.7914°N, 81.1673°W)
Time: 08:52:58
(UTC+00:00)

Cosmos 2058 Rocket - Pass Details

Date: 29 October 2020
Orbit: 610 x 639 km, 82.5° (Epoch: 26 November)

Event Time Altitude Azimuth Distance (km) Brightness Sun altitude
Rises 23:07:26 0° 183° (S) 2,913 6.7 -9.0°
Reaches altitude 10° 23:09:40 10° 182° (S) 2,014 5.8 -9.4°
Maximum altitude 23:14:08 78° 96° (E) 656 3.1 -10.2°
Drops below altitude 10° 23:18:39 10° 11° (N) 2,039 5.5 -11.1°
Sets 23:20:55 0° 10° (N) 2,953 6.4 -11.5°
